GW5258 Weather Reports


time (UTC)temp
C
wind
direction
speed
KPH
gust
KPH
rain 1hr
cm
rain 24hr
cm
rain mn
cm
humidity
%
barometer
mb
20260505102217 9 148 0.0 0.0 0.00 0.00 0.00 99 1013.0
20260505101716 9 148 0.0 0.0 0.00 0.00 0.00 99 1012.9
20260505101212 9 148 0.0 0.0 0.00 0.00 0.00 99 1012.7
20260505100708 9 142 0.0 0.0 0.00 0.00 0.00 99 1012.8
20260505100205 9 142 0.0 0.0 0.00 0.00 0.00 99 1012.5
20260505095700 9 123 0.0 0.0 0.00 0.00 0.00 99 1012.7
20260505095159 9 123 0.0 0.0 0.00 0.00 0.00 98 1012.5
20260505094654 9 123 0.0 0.0 0.00 0.00 0.00 98 1012.4
20260505094151 9 123 0.0 0.0 0.00 0.00 0.00 98 1012.4
20260505093647 9 122 0.0 0.0 0.00 0.00 0.00 98 1012.4
20260505093145 9 165 0.0 1.6 0.00 0.00 0.00 98 1012.2
20260505092641 9 165 1.6 1.6 0.00 0.00 0.00 98 1012.3
20260505092140 9 165 0.0 0.0 0.00 0.00 0.00 98 1012.2
20260505091637 9 165 0.0 0.0 0.00 0.00 0.00 98 1012.3
20260505091135 9 165 0.0 0.0 0.00 0.00 0.00 98 1012.3
20260505090632 9 165 0.0 1.6 0.00 0.00 0.00 98 1012.2
20260505090131 10 165 0.0 1.6 0.00 0.00 0.00 98 1012.1
20260505085627 9 165 0.0 0.0 0.00 0.00 0.00 98 1012.0
20260505085126 9 165 0.0 0.0 0.00 0.00 0.00 98 1012.0
20260505084623 9 165 0.0 0.0 0.00 0.00 0.00 97 1012.1
20260505084121 9 165 0.0 0.0 0.00 0.00 0.00 97 1012.1
20260505083619 10 165 0.0 1.6 0.00 0.00 0.00 97 1012.1
20260505083115 10 165 0.0 1.6 0.00 0.00 0.00 97 1012.2
20260505082610 10 165 0.0 1.6 0.00 0.00 0.00 97 1011.9
20260505082108 10 165 0.0 0.0 0.00 0.00 0.00 97 1012.0
20260505081604 10 165 0.0 1.6 0.00 0.00 0.00 96 1012.2
20260505081101 10 165 0.0 0.0 0.00 0.00 0.00 96 1012.0
20260505080557 10 165 0.0 0.0 0.00 0.00 0.00 97 1011.9
20260505080054 10 165 0.0 0.0 0.00 0.00 0.00 97 1011.9
20260505075550 10 165 0.0 0.0 0.00 0.00 0.00 96 1011.9
20260505075047 10 165 0.0 0.0 0.00 0.00 0.00 96 1011.9
20260505074544 10 165 0.0 0.0 0.00 0.00 0.00 97 1012.1
20260505074041 10 165 0.0 0.0 0.00 0.00 0.00 97 1011.8
20260505073538 10 165 0.0 0.0 0.00 0.00 0.00 96 1011.8
20260505073037 10 165 0.0 1.6 0.00 0.00 0.00 96 1011.9
20260505072532 10 167 0.0 1.6 0.00 0.00 0.00 96 1011.8
20260505072029 10 167 0.0 0.0 0.00 0.00 0.00 96 1011.6
20260505071524 10 167 0.0 0.0 0.00 0.00 0.00 96 1011.8
20260505071023 10 167 0.0 0.0 0.00 0.00 0.00 96 1011.8
20260505070520 10 167 0.0 1.6 0.00 0.00 0.00 96 1012.1
20260505070016 10 168 1.6 1.6 0.00 0.00 0.00 96 1012.0
20260505065512 10 168 0.0 0.0 0.00 0.00 0.00 96 1012.0
20260505065008 10 168 0.0 0.0 0.00 0.00 0.00 96 1011.8
20260505064505 10 168 0.0 0.0 0.00 0.00 0.00 96 1011.9
20260505064004 10 168 0.0 1.6 0.00 0.00 0.00 96 1012.0
20260505063500 10 168 0.0 0.0 0.00 0.00 0.00 96 1012.0
20260505062956 10 169 0.0 0.0 0.00 0.00 0.00 96 1011.9
20260505062453 10 168 0.0 0.0 0.00 0.00 0.00 96 1012.1
20260505061950 10 168 0.0 0.0 0.00 0.00 0.00 96 1011.9
20260505061448 10 168 0.0 1.6 0.00 0.00 0.00 96 1011.9
20260505060946 10 168 0.0 1.6 0.00 0.00 0.00 96 1012.1
20260505060443 10 168 0.0 0.0 0.00 0.00 0.00 96 1012.1
20260505055939 10 169 1.6 1.6 0.00 0.00 0.00 96 1011.9
20260505055435 10 168 0.0 1.6 0.00 0.00 0.00 96 1012.0
20260505054932 10 169 0.0 1.6 0.00 0.00 0.00 96 1012.0
20260505054429 10 168 0.0 0.0 0.00 0.00 0.00 96 1012.0
20260505053927 10 168 0.0 0.0 0.00 0.00 0.00 96 1011.9
20260505053424 10 168 0.0 1.6 0.00 0.00 0.00 96 1011.9
20260505052921 10 168 0.0 0.0 0.00 0.00 0.00 96 1012.0
20260505052418 10 168 0.0 0.0 0.00 0.00 0.00 96 1011.8
20260505051915 10 168 0.0 0.0 0.00 0.00 0.00 96 1011.9
20260505051412 10 168 0.0 0.0 0.00 0.00 0.00 96 1011.9
20260505050910 10 168 0.0 0.0 0.00 0.00 0.00 97 1011.7
20260505050408 10 168 0.0 0.0 0.00 0.00 0.00 97 1011.7
20260505041336 11 168 0.0 0.0 0.00 0.00 0.00 96 1011.2
20260505040833 11 168 0.0 0.0 0.00 0.00 0.00 96 1011.1
20260505040330 11 168 0.0 0.0 0.00 0.00 0.00 96 1011.0
20260505035827 11 168 0.0 0.0 0.00 0.03 0.03 96 1011.0
20260505035322 11 168 0.0 0.0 0.00 0.03 0.03 96 1010.9
20260505034820 11 168 0.0 0.0 0.00 0.03 0.03 96 1011.0
20260505034316 11 168 0.0 0.0 0.00 0.03 0.03 96 1010.9
20260505033814 11 168 0.0 0.0 0.00 0.03 0.03 96 1010.9
20260505033310 11 168 0.0 0.0 0.00 0.03 0.03 96 1010.9
20260505032809 11 168 0.0 0.0 0.00 0.03 0.03 96 1011.1
20260505032305 11 168 0.0 0.0 0.00 0.03 0.03 96 1010.7
20260505031803 11 168 0.0 0.0 0.00 0.03 0.03 96 1011.1
20260505031259 11 168 0.0 0.0 0.00 0.03 0.03 96 1011.0
20260505030757 11 168 0.0 0.0 0.00 0.03 0.03 96 1011.0
20260505030252 11 168 0.0 0.0 0.00 0.03 0.03 95 1010.9
20260505025747 11 168 0.0 0.0 0.00 0.03 0.03 95 1010.9
20260505025245 11 168 0.0 0.0 0.00 0.03 0.03 95 1010.8
20260505024743 11 168 0.0 0.0 0.00 0.03 0.03 95 1010.8
20260505024240 12 168 0.0 0.0 0.00 0.03 0.03 95 1011.0
20260505023738 12 168 0.0 0.0 0.00 0.03 0.03 95 1010.7
20260505023235 12 168 0.0 0.0 0.00 0.03 0.03 94 1010.9
20260505022732 12 168 0.0 0.0 0.00 0.03 0.03 94 1010.7
20260505022229 12 168 0.0 0.0 0.00 0.03 0.03 93 1010.4
20260505021725 12 168 0.0 0.0 0.00 0.03 0.03 93 1010.7
20260505021223 12 168 0.0 0.0 0.00 0.03 0.03 92 1010.7
20260505020718 12 168 0.0 0.0 0.00 0.03 0.03 92 1010.8
20260505020214 12 168 0.0 0.0 0.00 0.03 0.03 91 1010.8
20260505015712 13 168 0.0 0.0 0.00 0.03 0.03 91 1010.7
20260505015208 13 168 0.0 0.0 0.00 0.03 0.03 91 1010.7
20260505014705 13 168 0.0 0.0 0.00 0.03 0.03 90 1010.4
20260505014202 13 168 0.0 0.0 0.00 0.03 0.03 90 1010.5
20260505013659 13 168 0.0 0.0 0.00 0.03 0.03 89 1010.7
20260505013156 13 169 0.0 0.0 0.00 0.03 0.03 89 1010.7
20260505012655 13 168 0.0 0.0 0.00 0.03 0.03 88 1010.5
20260505012152 13 168 0.0 0.0 0.00 0.03 0.03 87 1010.4
20260505011652 14 169 0.0 1.6 0.00 0.03 0.03 87 1010.5
20260505011150 14 168 0.0 1.6 0.00 0.03 0.03 87 1010.7
20260505010645 14 168 0.0 0.0 0.00 0.03 0.03 86 1010.5
20260505010142 15 168 0.0 0.0 0.00 0.03 0.03 86 1010.5
20260505005638 15 168 0.0 1.6 0.00 0.03 0.03 85 1010.4
20260505005135 15 169 0.0 1.6 0.00 0.03 0.03 85 1010.5
20260505004632 15 168 1.6 1.6 0.00 0.03 0.03 85 1010.5
20260505004129 15 168 0.0 0.0 0.00 0.03 0.03 84 1010.2
20260505003626 16 168 0.0 0.0 0.00 0.03 0.03 82 1010.2
20260505003124 16 168 0.0 0.0 0.00 0.03 0.03 82 1010.3
20260505002619 16 168 0.0 0.0 0.00 0.03 0.03 81 1010.2
20260505002118 16 168 0.0 1.6 0.00 0.03 0.03 80 1010.4
20260505001614 17 168 0.0 0.0 0.00 0.03 0.03 79 1010.5
20260505001112 17 169 1.6 1.6 0.00 0.03 0.03 77 1010.4
20260505000609 17 163 0.0 1.6 0.00 0.03 0.03 76 1010.4
20260505000107 18 163 0.0 1.6 0.00 0.03 0.03 75 1010.4
20260504235603 18 163 0.0 0.0 0.00 0.03 0.03 74 1010.3
20260504235100 18 163 0.0 1.6 0.00 0.03 0.03 72 1010.4
20260504234557 19 200 0.0 0.0 0.00 0.03 0.03 71 1010.4
20260504234054 19 199 0.0 0.0 0.00 0.03 0.03 69 1010.3
20260504233549 20 81 0.0 0.0 0.00 0.03 0.03 64 1010.0
20260504233046 21 80 0.0 1.6 0.00 0.03 0.03 63 1010.1
20260504232543 22 144 0.0 1.6 0.00 0.03 0.03 55 1010.0
20260504232041 21 218 0.0 4.8 0.00 0.03 0.03 60 1010.1
20260504231537 22 23 1.6 6.4 0.00 0.03 0.03 55 1010.1
20260504231033 23 167 1.6 3.2 0.00 0.03 0.03 53 1010.0
20260504230530 22 71 3.2 3.2 0.00 0.03 0.03 53 1010.0
20260504230029 23 73 1.6 3.2 0.00 0.03 0.03 51 1009.9
20260504225525 23 96 3.2 4.8 0.00 0.03 0.03 49 1010.0
20260504225022 23 89 1.6 4.8 0.00 0.03 0.03 50 1010.2
20260504224519 23 133 0.0 3.2 0.00 0.03 0.03 53 1010.4
20260504224016 23 102 1.6 3.2 0.00 0.03 0.03 47 1010.3
20260504223513 23 236 0.0 1.6 0.00 0.03 0.03 52 1010.2
20260504223009 23 98 0.0 4.8 0.00 0.03 0.03 46 1010.4
20260504222506 23 124 0.0 0.0 0.00 0.03 0.03 49 1010.4
20260504222003 23 22 1.6 1.6 0.00 0.03 0.03 50 1010.7
20260504221500 23 103 1.6 1.6 0.00 0.03 0.03 47 1010.7
20260504220957 24 68 3.2 3.2 0.00 0.03 0.03 46 1010.4
20260504220453 24 120 6.4 14.5 0.00 0.03 0.03 44 1010.5
20260504215950 24 116 8.0 16.1 0.00 0.03 0.03 43 1010.3
20260504215447 25 77 16.1 20.9 0.00 0.03 0.03 41 1010.4
20260504214944 24 127 1.6 6.4 0.00 0.03 0.03 43 1010.4
20260504214440 24 106 8.0 11.3 0.00 0.03 0.03 44 1010.2
20260504213937 24 199 0.0 1.6 0.00 0.03 0.03 50 1010.2
20260504213433 25 98 1.6 11.3 0.00 0.03 0.03 43 1010.3
20260504212931 25 113 1.6 11.3 0.00 0.03 0.03 45 1010.4
20260504212426 25 131 6.4 14.5 0.00 0.03 0.03 45 1010.5
20260504211924 25 102 0.0 9.7 0.00 0.03 0.03 48 1010.3
20260504211420 25 137 1.6 3.2 0.00 0.03 0.03 49 1010.5
20260504210918 25 85 4.8 11.3 0.00 0.03 0.03 47 1010.5
20260504210414 25 257 0.0 4.8 0.00 0.03 0.03 48 1010.7
20260504205912 25 80 3.2 3.2 0.00 0.03 0.03 47 1010.7
20260504205409 24 103 4.8 6.4 0.00 0.03 0.03 48 1010.8
20260504204907 24 91 4.8 11.3 0.00 0.03 0.03 48 1010.9
20260504204405 24 110 1.6 4.8 0.00 0.03 0.03 51 1011.0
20260504203905 23 245 3.2 3.2 0.00 0.03 0.03 51 1011.1
20260504203401 23 80 3.2 4.8 0.00 0.03 0.03 50 1011.1
20260504202857 23 131 3.2 6.4 0.00 0.03 0.03 53 1011.3
20260504202354 23 189 1.6 14.5 0.00 0.03 0.03 53 1011.3
20260504201850 23 122 3.2 4.8 0.00 0.03 0.03 54 1011.4
20260504201348 23 98 3.2 6.4 0.00 0.03 0.03 55 1011.4
20260504200845 23 76 6.4 6.4 0.00 0.03 0.03 52 1011.6
20260504200342 22 49 3.2 6.4 0.00 0.03 0.03 54 1011.6
20260504195838 22 92 6.4 11.3 0.00 0.03 0.03 54 1011.8
20260504195334 22 169 8.0 12.9 0.00 0.03 0.03 53 1011.9
20260504194831 22 87 3.2 9.7 0.00 0.03 0.03 54 1011.9
20260504194327 22 161 3.2 6.4 0.00 0.03 0.03 53 1012.2
20260504193823 21 111 3.2 12.9 0.00 0.03 0.03 54 1012.0
20260504193321 21 99 1.6 4.8 0.00 0.03 0.03 52 1012.2
20260504192819 21 73 3.2 6.4 0.00 0.03 0.03 54 1012.3
20260504192317 21 222 4.8 16.1 0.00 0.03 0.03 58 1012.3
20260504191815 21 173 3.2 11.3 0.00 0.03 0.03 58 1012.5
20260504191312 20 191 3.2 4.8 0.00 0.03 0.03 60 1012.5
20260504190808 19 231 0.0 1.6 0.00 0.03 0.03 76 1012.5
20260504190304 18 230 0.0 1.6 0.18 0.03 0.03 78 1012.9
20260504185800 17 99 1.6 1.6 0.18 0.03 0.03 83 1013.5
20260504185258 17 101 0.0 1.6 0.00 0.00 0.00 80 1013.2
20260504184754 18 87 1.6 4.8 0.00 0.00 0.00 69 1013.6
20260504184249 20 137 3.2 11.3 0.00 0.00 0.00 56 1013.6
20260504183745 21 145 0.0 14.5 0.00 0.00 0.00 50 1012.9
20260504183243 21 89 3.2 6.4 0.00 0.00 0.00 50 1012.8
20260504182741 21 91 3.2 6.4 0.00 0.00 0.00 49 1012.7
20260504182238 21 86 3.2 11.3 0.00 0.00 0.00 50 1012.5
20260504181735 22 95 6.4 12.9 0.00 0.00 0.00 48 1012.4
20260504181232 22 209 1.6 14.5 0.00 0.00 0.00 48 1012.4
20260504180731 22 86 9.7 14.5 0.00 0.00 0.00 47 1012.2
20260504180230 22 85 6.4 14.5 0.00 0.00 0.00 48 1012.4
20260504175727 22 82 6.4 9.7 0.00 0.00 0.00 47 1012.3
20260504175223 22 88 4.8 12.9 0.00 0.00 0.00 47 1012.3
20260504174722 21 71 1.6 9.7 0.00 0.00 0.00 49 1012.6
20260504174220 22 117 9.7 12.9 0.00 0.00 0.00 48 1012.5
20260504173715 21 189 4.8 20.9 0.00 0.00 0.00 50 1012.4
20260504173213 20 163 6.4 16.1 0.00 0.00 0.00 55 1012.5
20260504172709 20 120 9.7 12.9 0.00 0.00 0.00 51 1012.7
20260504172205 21 150 3.2 14.5 0.00 0.00 0.00 49 1012.8
20260504171702 21 94 4.8 9.7 0.00 0.00 0.00 53 1012.7
20260504171159 21 262 3.2 6.4 0.00 0.00 0.00 51 1012.7
20260504170655 21 260 3.2 11.3 0.00 0.00 0.00 54 1012.8
20260504170153 20 71 9.7 11.3 0.00 0.00 0.00 57 1012.9
20260504160112 17 183 3.2 9.7 0.00 0.00 0.00 65 1014.4
20260504151045 17 78 4.8 14.5 0.00 0.00 0.00 64 1015.1
20260504150542 17 107 6.4 11.3 0.00 0.00 0.00 65 1015.3
20260504141008 14 102 3.2 4.8 0.00 0.00 0.00 73 1015.8
20260504140505 13 60 1.6 3.2 0.00 0.00 0.00 73 1016.0
20260504130429 13 108 8.0 14.5 0.00 0.00 0.00 63 1015.1
20260504110311 5 151 0.0 0.0 0.00 0.00 0.00 95 1014.7